Regional Weather Roundup
Issued by NWS

Home | Current Version | Previous Version | Text Only | Print | Product List | Glossary On
Versions: 1 2 3 4 5 6 7 8 9 10 11 12 13 14 15 16 17 18 19 20 21 22 23 24 25 26 27
000
ASUS45 KBOI 180010
RWRID

IDAHO REGIONAL WEATHER ROUNDUP
NATIONAL WEATHER SERVICE BOISE ID
500 PM MST SUN DEC 17 2017

NOTE: "FAIR" INDICATES FEW OR NO CLOUDS BELOW 12000 FEET
WITH NO SIGNIFICANT WEATHER AND/OR OBSTRUCTIONS TO VISIBILITY

IDZ012-014-180100-
SOUTHWEST IDAHO


CITY           SKY/WX    TMP DP  RH WIND       PRES   REMARKS
BOISE          CLOUDY    36  21  54 CALM      30.22S
CALDWELL       CLOUDY    36  25  64 E3        30.24S
MOUNTAIN HOME  CLOUDY    37  22  53 CALM      30.22S
$$

IDZ016-017-180100-
SOUTHCENTRAL IDAHO


CITY           SKY/WX    TMP DP  RH WIND       PRES   REMARKS
BURLEY         CLOUDY    35  18  49 W5        30.19R WCI  31
JEROME         CLOUDY    32  20  61 CALM      30.20F
TWIN FALLS     CLOUDY    32  20  61 W6        30.20S WCI  26
$$

IDZ019>023-180100-
SOUTHEAST IDAHO


CITY           SKY/WX    TMP DP  RH WIND       PRES   REMARKS
IDAHO FALLS    CLOUDY    22  19  89 SW9       30.22R WCI  12
POCATELLO      CLOUDY    27  19  72 CALM      30.22R
REXBURG        CLOUDY    21  19  92 S5        30.20F WCI  15
$$

IDZ006-010-011-018-031-032-180100-
CENTRAL IDAHO MOUNTAINS


CITY           SKY/WX    TMP DP  RH WIND       PRES   REMARKS
MCCALL         CLOUDY    24  16  71 CALM      30.11S
HAILEY         CLOUDY    21  19  93 SE6       30.16S WCI  14
STANLEY          N/A     22  12  65 CALM      30.10S
SALMON         NOT AVBL
CHALLIS        CLOUDY    26  11  52 CALM      30.11R
$$

IDZ002-004-006-007-026-180100-
NORTHERN IDAHO


CITY           SKY/WX    TMP DP  RH WIND       PRES   REMARKS
LEWISTON       CLOUDY    32  32 100 NE6       30.11F FOG     WCI  26
LOWELL           N/A     32  30  92 CALM      30.20F
COEUR D`ALENE  LGT SNOW  32  31  96 S10       30.02F FOG     WCI  24
MULLAN PASS    LGT SNOW  24  20  84 SW6       29.92R FOG     WCI  17
$$




USA.gov is the U.S. government's official web portal to all federal, state and local government web resources and services.